CAPE
994 429 534 541 617 980 839 416 811 492 421 636 234 400 399 628 599 453 624 875 1048 853 758 182 81 43 286 133 107 430 326 206 68 83 56 164 392 798 735 819 826 872 954 1009 1340 1294 1048 1303 1504 1694 1927 2008 1962 1855 1785 1571 1913 2883 2828 2947 3133 3074 3228 3310 3371 3400 3504 3500 3531 3498 3427 3307 3210 3083 3083 3120 3037 2999 2878 2877 3054 2847 2923 2690 2501 2403 2411 2660 2647 2542 2570 2600 2548 2357 2330 2450 2154
513 838 602 620 882 1100 967 875 666 462 442 263 184 225 393 540 670 352 383 654 583 700 574 180 440 535 374 293 352 129 151 309 394 231 56 202 252 530 629 901 904 933 1017 1213 1426 1349 1459 1307 1273 1678 1822 1976 1854 1660 1750 1886 2820 2819 2914 3118 3030 3181 3214 3328 3483 3516 3534 3513 3486 3486 3362 3188 3127 3038 3043 3036 3058 3092 3126 3038 2991 2999 2944 2314 2640 2680 2583 2400 2446 2488 2528 2533 2459 2391 2333 2317 2062
529 877 702 675 768 935 991 916 1128 414 260 324 308 284 256 314 426 287 318 453 703 779 384 282 146 311 204 221 251 572 481 203 95 73 168 235 206 534 779 958 969 823 1042 1334 1341 1496 1671 1601 1151 1538 1916 2218 1820 1979 2410 2796 2828 2836 2989 3156 3203 3316 3443 3566 3554 3532 3509 3522 3486 3394 3181 3114 3058 3053 3153 3176 3086 3133 3004 3019 2878 2905 2658 2725 2298 2559 2506 2347 2274 2425 2431 2471 2476 2395 2262 2086 2083
652 875 666 762 1161 913 825 478 484 644 232 296 342 256 310 339 557 476 404 632 857 630 359 321 334 433 359 463 522 242 292 200 78 153 136 240 395 383 764 1002 1207 1023 1142 1226 1348 1709 1665 1462 1266 1451 2110 2563 2705 2670 2610 2695 2858 3084 3196 3310 3343 3501 3563 3614 3564 3535 3453 3427 3413 3220 3066 2986 3056 3216 3077 3099 3131 2972 2846 2861 2865 2803 2587 2222 2324 2225 2510 2501 2619 2282 2556 2505 2491 2422 2383 1938 2050
697 809 774 944 1311 744 596 338 437 393 211 252 177 132 337 419 828 860 797 747 797 687 631 585 483 571 560 334 278 299 621 198 63 192 166 488 640 619 870 1064 1150 1112 1246 1296 1656 1747 1601 1398 1549 1928 2419 2459 2565 2558 2571 2784 3011 3237 3342 3370 3409 3526 3573 3396 3350 3409 3436 3408 3237 3086 2979 3091 3258 3065 3052 3133 2982 2898 2860 2808 2934 2871 2730 2749 2432 2486 2545 2429 2269 2296 2489 2611 2566 2441 2307 2228 2292
744 663 949 1012 1019 459 702 538 667 523 199 249 256 283 366 561 900 834 728 809 565 500 550 575 659 539 575 599 516 457 288 329 119 290 274 633 625 658 953 1212 1162 1239 1335 1480 1639 1905 1750 1532 2206 2350 2332 2416 2427 2643 2705 2888 3123 3268 3424 3374 3441 3449 3512 3432 3430 3478 3416 3360 3092 3019 3074 3163 3166 3080 3100 3051 2866 2825 2877 2761 2766 2928 2905 2897 2883 2675 2425 2478 2461 2430 2627 2533 2508 2431 2489 2480 2246
799 942 1026 892 987 818 779 659 368 279 269 172 217 268 472 765 825 753 703 604 479 523 535 685 597 491 602 347 326 193 281 290 311 288 326 702 740 794 939 1060 1026 1266 1314 1448 1687 1980 1703 1787 2525 2211 2332 2536 2603 2733 2918 3054 3164 3274 3193 3392 3390 3485 3374 3346 3406 3332 3346 3330 3095 3031 3133 3182 3056 3155 3064 2880 2823 2922 2544 2371 2489 2672 2688 2617 2691 2449 2562 2565 2425 2513 2336 2322 2709 2530 2531 2581 2483
958 1512 906 761 997 803 749 613 582 338 276 236 196 332 684 830 835 787 714 725 604 713 641 560 636 992 698 403 624 723 521 218 328 459 633 642 750 866 952 1001 1050 1174 1266 1510 1843 2020 2042 2147 1766 2157 2277 2196 2247 2414 2607 2740 3006 3099 3276 3358 3341 3314 3305 3361 3357 3335 3346 3212 3070 3178 3170 3201 3233 2992 2854 2872 2985 2913 2492 2310 2281 2592 2537 2412 2350 2433 2376 2432 2451 2331 2278 2558 2652 2528 2703 2595 2736
883 1178 1039 1293 1025 364 620 384 249 283 356 207 190 580 928 876 866 853 766 704 623 622 603 582 502 672 588 596 796 630 703 576 567 710 657 572 841 750 936 951 1030 1153 1309 1508 1736 2020 2333 2424 2082 2451 2334 2194 2339 2410 2646 2682 2808 3109 3268 3189 3183 3234 3190 3320 3308 3335 3366 3187 3182 3160 3112 3124 2909 2886 2852 2980 2991 3065 2839 2657 2560 2357 2301 2288 2183 2197 2191 2369 2413 2410 2355 2480 2634 2732 2487 2412 2420
874 1241 1275 983 552 453 272 51 179 202 227 274 517 810 877 848 876 831 797 702 698 635 649 446 434 775 559 653 580 589 632 707 612 693 702 703 853 840 912 1036 1093 1170 1210 1596 1771 1903 2142 2248 2084 2297 2402 2356 2395 2443 2655 2783 2836 2900 3067 3167 3155 3173 3177 3255 3344 3367 3250 3100 3164 3123 3076 3065 2952 2934 2922 2950 3092 2992 2649 2458 2468 2444 2425 2279 2211 2332 2347 2343 2467 2542 2503 2428 2508 2576 2620 2518 2364
1195 1002 1092 1152 627 416 179 102 68 43 59 189 477 840 905 887 866 832 767 756 652 804 696 618 722 632 529 447 914 811 664 714 594 565 646 707 769 905 860 1070 1148 1231 1340 1588 1734 1959 2169 2203 2120 2157 2330 2228 2387 2440 2647 2810 2794 2840 3056 3068 3048 3160 3126 3094 3170 3193 3189 3076 3109 3132 3105 2944 3000 2912 2974 2986 2876 2736 2682 2533 2412 2365 2347 2352 2331 2324 2433 2598 2553 2667 2434 2414 2501 2529 2627 2585 2434
1246 1140 1268 779 667 455 309 212 88 40 147 276 675 887 942 953 849 809 765 740 815 756 817 412 813 625 540 380 549 811 693 641 595 574 734 845 730 837 1004 1018 1172 1323 1410 1578 1732 1956 2190 2424 2312 2312 2325 2354 2466 2466 2590 2800 2764 2948 3039 3014 2961 3061 3062 3030 2987 3203 3166 3064 3086 3055 3031 2945 2914 2973 2883 2753 2628 2577 2536 2607 2380 2374 2260 2281 2420 2665 2505 2694 2729 2566 2402 2455 2372 2326 2522 2640 2530
1538 1224 1196 1075 935 471 397 255 167 134 269 452 707 880 819 940 928 866 772 829 778 788 769 752 719 569 477 491 599 725 530 666 648 649 766 828 827 618 1064 1018 1164 1260 1480 1697 1720 1878 2210 2363 2641 2642 2376 2296 2507 2568 2770 2802 2784 2995 2969 2979 2961 3005 3059 2967 2878 3168 3152 3086 2995 3064 2966 2876 2916 2958 2951 2747 2620 2553 2541 2366 2048 2173 2708 2863 2779 2775 2693 2788 2570 2623 2214 2374 2503 2322 2404 2696 2511
1492 1383 854 1119 534 495 449 337 197 226 301 414 710 881 957 964 934 859 803 790 766 693 801 824 626 832 694 611 652 549 527 640 664 602 661 626 902 909 990 908 1202 1199 1346 1714 1724 1834 1992 2220 2662 2305 2358 2660 2734 2724 2770 2756 2939 3004 2972 3045 2986 3035 3043 2904 2771 2996 3049 3028 3075 3007 2901 2920 2915 2940 2986 2858 2599 2609 2700 2495 2523 2888 2853 2702 2552 2530 2481 2813 2709 2771 2688 2520 2430 2510 2520 2440 2467
1099 1289 1144 1010 1014 486 182 187 140 206 293 340 789 937 936 856 797 840 763 864 803 984 832 685 749 348 553 634 582 611 586 462 734 717 698 726 710 981 1013 979 1096 1413 1546 1607 1711 1778 1900 2086 2238 2644 2709 2997 2919 2808 2726 2883 2869 3120 2907 3004 3040 3048 3075 2831 2814 2917 2902 3016 2884 3015 2841 2832 2878 2813 2797 2899 2752 2681 2780 2775 2814 2771 2472 2447 2418 2781 2776 2794 2741 2747 2816 2680 2670 2772 2668 2609 2819
1140 1717 1075 1328 1132 539 440 128 32 177 287 208 793 976 972 838 879 885 804 931 992 939 736 716 722 628 641 812 691 559 740 776 812 768 801 842 898 1116 1066 1082 1306 1425 1665 1602 1722 1875 1870 2016 2095 2932 2457 2680 3120 3123 2614 3014 2937 3046 3037 2943 3002 2933 3064 2840 2835 2953 2846 2914 2811 2754 2815 2778 2787 2541 2700 2658 2695 2856 2978 2752 2728 2586 2732 2293 2394 2601 2744 2917 2783 2625 2693 2725 2498 2640 2449 2552 2704
1041 1456 1406 1341 1125 621 437 216 79 286 51 265 831 963 1015 998 931 1103 880 1010 1025 987 804 732 641 885 670 915 860 636 829 827 882 836 836 826 971 972 1144 1024 1215 1280 1543 1616 1740 1882 2001 2015 2046 2326 2307 2379 2656 2818 2960 2890 2826 2941 3009 2875 2870 2934 3150 2900 2839 2962 2890 2824 2771 2699 2871 2702 2798 2685 3019 2768 2911 3084 2957 2772 2525 2394 2826 2599 2626 2549 2636 2598 2649 2710 2723 2914 2599 2843 2909 2904 2698
1536 1615 1221 1244 1258 925 736 277 48 46 20 577 838 946 1032 1066 962 1050 1076 1051 1100 959 1037 1031 1086 1001 929 1088 897 890 895 927 897 804 764 779 900 881 992 1016 1148 1220 1372 1513 1875 1931 1899 2042 2062 2156 2170 2358 2217 2632 2825 2959 2836 2934 2950 3016 3083 2824 3043 3028 2996 2867 2856 2854 2686 2751 2845 2765 2682 2982 2870 2959 2920 3152 3068 3019 2822 2762 2795 2414 2512 2436 2695 2682 2853 3018 2893 2618 2580 2656 2801 3484 3266
1712 1393 1242 1036 1345 974 1024 870 378 8 15 309 840 930 960 1090 1086 1044 1079 1157 1036 972 1116 1065 1300 1347 1264 1209 990 1051 961 833 886 807 784 776 863 848 869 975 1007 1036 1291 1511 1644 1924 1984 2066 2089 2079 2166 2350 2390 2465 2563 2657 2746 2849 3047 3550 3253 2786 2820 2981 3079 2949 2972 2875 2887 2755 2880 2626 2758 2954 3012 2938 3011 2954 2650 2900 2538 2452 2568 2167 2545 2827 3229 3160 2964 3110 2958 3058 2929 2698 3411 3897 3646
1709 1198 1011 1100 1051 1022 674 456 418 0 13 528 824 933 960 1149 1156 992 1098 1242 1066 1115 1302 1212 1283 1216 1336 1254 1157 1058 888 885 847 830 796 918 797 878 914 899 930 968 1088 1354 1516 1754 1760 1952 2146 2172 2190 2304 2280 2198 2289 2344 2497 2780 2717 2975 2894 3198 3150 3284 3220 3050 3003 2893 2938 2850 2721 2754 2874 2972 3095 3173 3058 2954 2722 3087 2799 2753 2902 2819 2878 2783 2767 3399 3366 3290 3357 3258 2776 3109 3691 3597 3578
1538 1406 1110 1163 855 978 984 912 566 398 158 214 738 920 931 1035 1181 1035 1180 1230 1175 1182 1359 1260 1378 1382 1282 1196 1209 1038 904 716 890 883 884 743 974 952 871 995 967 1034 1163 1280 1521 1572 1815 1988 2093 2191 2212 2396 2281 2081 2101 2111 2282 2399 2525 2662 2880 2880 3005 3051 2858 2985 2925 2977 3021 2882 2546 2612 2656 2604 2527 2685 2965 2864 3169 3283 3338 3265 3435 3442 2967 3306 3122 3088 2923 2977 2907 2771 2919 2949 3087 3027 2945
1829 1441 1371 1322 755 480 456 319 336 327 46 79 784 850 987 1065 1092 1075 1179 1161 1316 1340 1454 1312 1556 1449 1270 1143 1215 1078 857 937 879 990 916 859 856 1014 1014 1082 1017 1099 1138 1280 1477 1732 1827 1945 1977 1995 2118 2350 2221 2139 2085 2075 2215 2290 2382 2495 2657 2802 2734 2881 2829 2742 2730 2903 2749 2500 2513 2587 2636 2552 2599 2608 2598 2736 2874 3430 3416 3406 3486 3419 3463 3270 3132 3102 3030 2805 2693 2668 2749 2896 2993 3131 2769
508 914 1408 1472 1394 1214 1133 508 447 384 5 300 675 845 1051 1050 1106 1105 1180 1030 958 1068 1404 1360 1669 1572 1466 1239 1198 1099 994 837 913 1019 1014 959 1067 1014 1074 1108 1082 1106 1162 1300 1439 1500 1721 1729 2103 2033 2019 2190 2122 2177 2050 2048 2147 2161 2222 2508 2565 2670 2792 2781 2725 2622 2632 2834 2727 2659 2400 2350 2355 2460 2517 2700 2634 2677 2778 3218 3284 3278 3292 3213 3388 3128 3141 3079 2992 2875 2852 2782 2759 2768 2982 3130 3145
768 532 592 875 1286 1332 1250 980 623 229 37 65 388 938 971 1090 1159 1101 1163 1064 836 916 1390 1416 1732 1517 1573 1441 1295 1168 1049 910 885 1054 952 1010 1028 1074 1041 1060 1071 1141 1252 1254 1304 1433 1764 1630 1934 1974 1916 2053 2100 2094 2134 2068 2245 2067 2129 2487 2568 2536 2679 2581 2464 2558 2750 2762 2843 2672 2597 2346 2283 2397 2486 2772 2803 2863 2946 3223 3337 2971 3083 3156 3250 3064 2839 2946 2898 2950 2843 2792 2822 2834 2784 3151 2970
806 649 486 430 268 336 344 250 144 42 8 14 652 812 896 1116 1128 1081 1162 1118 970 1136 1525 1736 1789 1726 1629 1542 1388 1199 1175 1066 1105 1109 1159 1195 1226 1151 1157 1198 1140 1195 1230 1288 1266 1271 1480 1766 1836 1903 1924 2060 2012 1993 1926 1913 2161 2195 2165 2257 2487 2629 2622 2465 2489 2659 2712 2578 2687 2767 2768 2364 2405 2379 2531 2656 2795 2864 2952 3232 3248 3017 3163 3199 3183 3070 2883 2941 2907 2849 2774 2810 3017 2816 2819 2997 3102
253 516 312 100 48 58 82 119 85 59 22 2 392 462 745 1087 1009 1047 1212 1044 1314 1568 1660 1800 1822 1792 1575 1550 1539 1370 1274 1155 1204 1190 1207 1342 1366 1303 1250 1224 1130 1064 1118 1280 1275 1314 1411 1700 1431 1794 1790 1864 1964 1785 1818 1920 2145 2148 2155 2338 2514 2640 2512 2493 2494 2422 2355 2362 2345 2496 2414 2445 2317 2400 2525 2692 2823 2760 2848 3178 3282 3142 3195 3257 3106 3082 2994 2798 2873 2999 3020 2818 2900 2919 3023 2969 2642
0 9 66 33 3 0 3 4 6 36 0 0 1 139 582 938 818 897 1091 1170 1502 1634 1796 1847 1829 1740 1648 1625 1619 1416 1302 1336 1260 1312 1341 1438 1386 1318 1306 1270 1212 1153 1157 1135 1236 1327 1286 1453 1378 1730 1852 1877 1855 1757 1854 1875 2034 2050 2246 2404 2384 2528 2457 2389 2390 2303 2317 2355 2421 2434 2570 2692 2509 2358 2624 2775 2808 2886 2762 3157 3091 3222 3123 3185 3225 3045 2994 2853 2890 3071 3156 2914 3009 3186 3067 2470 2138
0 0 0 0 0 0 0 0 0 0 0 0 0 0 511 815 817 627 1058 1376 1530 1738 1860 1888 1886 1838 1764 1693 1700 1598 1559 1399 1421 1473 1363 1433 1332 1326 1270 1250 1164 1157 1113 1165 1282 1391 1315 1389 1397 1256 1414 1676 1776 1637 1790 1735 1864 2114 2239 2247 2249 2244 2413 2442 2241 2206 2288 2241 2392 2406 2481 2602 2683 2604 2766 3076 2770 2840 2806 2989 3088 3145 3014 3224 3257 3058 2950 2863 3124 3289 3177 3340 3480 3252 2508 1392 1120
0 0 0 0 0 0 0 0 0 0 0 0 0 57 304 703 715 818 1150 1384 1579 1772 1865 1912 1932 1918 1870 1737 1547 1624 1510 1507 1594 1443 1366 1456 1330 1116 1136 1012 974 1159 1192 1252 1254 1353 1278 1291 1298 1438 1485 1716 1698 1595 1676 1616 1789 1818 2027 2102 2071 1964 2204 2178 2015 2037 2156 2293 2363 2349 2519 2618 2736 2804 2829 2950 3036 2869 2890 3313 2937 3086 3126 3152 3241 3363 3333 3142 3286 3294 3150 3351 3217 2550 946 938 1096
0 0 0 0 0 0 0 0 0 0 0 0 0 0 16 532 619 1098 1443 1395 1561 1824 1875 1889 1971 1958 1846 1756 1594 1544 1514 1578 1527 1389 1424 1275 1386 1254 1095 1021 1048 1213 1179 1246 1254 1292 1274 1325 1360 1410 1273 1554 1636 1530 1499 1652 1650 1752 1928 1966 2060 2093 1989 2021 2020 2040 2068 2164 2258 2417 2567 2577 2639 2877 2946 3043 3089 2728 2872 3148 3117 3024 3109 3427 3337 3476 3168 3116 3124 3341 3146 2917 1763 1005 995 901 661
0 0 0 0 0 0 0 0 0 0 0 0 0 0 0 432 630 1016 1451 1594 1529 1738 1911 1838 1894 1941 1933 1798 1618 1487 1491 1584 1530 1485 1457 1435 1248 1110 1303 1208 1154 1205 1285 1269 1245 1303 1362 1331 1322 1387 1489 1494 1612 1637 1573 1562 1553 1582 1801 1843 1856 1979 1888 1797 1903 2031 2090 2194 2512 2575 2663 2813 2865 2886 2871 2987 2812 3035 2735 2723 3129 2919 3138 3455 3175 3452 3030 2761 3086 3048 3028 2582 1626 904 866 843 822
0 0 0 0 0 0 0 0 0 0 0 5 0 0 0 62 642 1300 1388 1544 1520 1636 1910 1892 1840 1812 1841 1801 1696 1526 1381 1379 1548 1542 1473 1438 1207 1100 1317 1292 1332 1059 1345 1335 1130 1344 1324 1470 1510 1414 1429 1412 1676 1590 1628 1560 1542 1634 1656 1740 1750 1860 1729 1808 1927 1985 2242 2515 2378 2538 2877 2977 2980 3072 2962 2934 2907 2919 2628 2600 2675 3225 3577 3345 3430 3550 3093 2533 3014 3129 3032 2135 1437 755 753 680 679
0 0 0 0 0 0 0 0 0 0 0 6 7 0 22 16 526 1238 1420 1495 1502 1756 1876 1913 1842 1846 1855 1809 1749 1612 1495 1204 1488 1464 1507 1482 1446 1399 1370 1432 1346 1383 1356 1356 1341 1401 1497 1340 1598 1370 1432 1410 1505 1667 1615 1571 1694 1618 1671 1664 1520 1796 1710 1764 1962 2192 2506 2391 2390 2296 2917 3002 3117 3099 3240 3244 2959 3030 2902 2749 2640 3278 3561 3337 3646 3598 3157 2915 2874 2731 2882 2016 1137 806 432 358 477
0 0 0 0 0 0 0 0 0 0 0 1 26 3 0 132 749 1236 1408 1463 1426 1717 1905 1910 1883 1843 1876 1824 1726 1672 1612 1509 1331 1439 1489 1512 1465 1428 1436 1536 1442 1473 1430 1454 1382 1460 1448 1469 1549 1432 1427 1411 1497 1624 1618 1530 1587 1602 1648 1564 1799 1787 1872 1939 2308 2514 2398 2110 2460 2497 2901 3080 3116 3209 3411 3299 3024 3040 3000 3189 2682 3144 3334 3598 3664 3556 3592 2993 2923 2741 2762 2270 1291 962 285 136 132
0 0 0 0 0 0 0 0 0 0 0 0 8 16 7 412 672 1145 1363 1407 1403 1566 1856 1925 1840 1847 1864 1810 1810 1735 1669 1581 1479 1506 1357 1262 1467 1465 1210 1526 1484 1473 1383 1262 1586 1510 1598 1529 1576 1562 1450 1517 1432 1509 1687 1603 1575 1675 1508 1591 1670 1820 1880 2028 2343 2343 2152 2215 2014 2405 3114 3035 3080 3424 3453 3344 3152 3181 3255 3225 3162 3371 3337 3790 3847 3420 3458 3135 2980 2598 2064 2205 1540 785 673 358 291
0 0 0 0 0 0 0 0 0 0 0 0 0 4 15 224 555 1027 1246 1397 1351 1525 1772 1829 1804 1822 1851 1827 1799 1790 1770 1684 1659 1601 1400 1378 1384 1576 1496 1500 1568 1501 1467 1601 1500 1576 1552 1642 1608 1575 1631 1458 1473 1644 1611 1518 1434 1383 1318 1453 1443 1654 1786 1942 2269 2231 2108 2177 2126 2441 2975 3020 3237 3437 3555 3562 3468 3412 3276 3146 3228 3377 3445 3724 3680 3169 3140 3148 3135 2572 2310 1817 1580 1324 1221 893 534
0 0 0 0 0 0 0 0 0 0 0 0 0 0 0 19 472 940 1146 1309 1367 1478 1677 1760 1777 1808 1796 1775 1761 1798 1792 1754 1680 1692 1656 1560 1390 1534 1338 1462 1682 1671 1676 1599 1605 1479 1634 1560 1618 1624 1656 1637 1648 1465 1518 1483 1437 1446 1549 1458 1423 1585 1821 2048 2304 2206 2160 2230 2492 2583 2864 2989 3311 3415 3484 3618 3500 3544 3526 3383 3327 3436 3410 3446 3442 3039 2971 2693 2659 2330 2048 2200 1638 1400 1019 692 949
0 0 0 0 0 0 0 0 0 0 0 0 0 0 0 1 430 789 1101 1204 1251 1286 1498 1691 1747 1803 1812 1818 1809 1870 1888 1785 1727 1718 1698 1669 1663 1667 1653 1653 1744 1695 1721 1724 1657 1628 1672 1741 1763 1812 1835 1763 1689 1730 1718 1712 1654 1581 1561 1567 1676 1817 1962 2023 2137 2256 2064 2107 2669 2769 2902 2912 3124 3234 3287 3600 3641 3688 3535 3380 3526 3375 3468 3381 3215 3201 3080 2978 2617 2306 2027 1961 1721 1384 990 381 906
0 0 0 0 0 0 0 0 0 0 0 0 0 0 0 0 131 790 1120 1199 1217 1167 1305 1524 1742 1774 1822 1853 1865 1856 1831 1836 1744 1738 1674 1622 1610 1585 1631 1590 1668 1696 1730 1688 1719 1730 1820 1777 1803 2022 1912 1822 1830 1899 2018 1878 1929 1954 1872 1946 1980 2101 2122 2098 2051 2266 2304 2120 2478 2733 2820 2950 3076 3039 3181 3318 3506 3692 3652 3560 3527 3498 3405 3270 3150 3004 2853 2659 2413 2101 2054 1677 1513 1214 1066 1061 1335
0 0 0 0 0 0 0 0 0 0 0 0 0 0 0 5 94 675 1051 1149 1258 1228 1222 1416 1608 1764 1783 1820 1867 1889 1825 1874 1816 1779 1697 1655 1626 1656 1638 1701 1726 1731 1874 1896 1914 1860 1840 1876 1978 1980 2075 2074 2086 1987 2107 2153 2162 2171 2104 2369 2160 2156 2179 2209 2344 2445 2485 2245 2306 2596 2795 2960 2973 2899 2994 3151 3365 3608 3720 3749 3531 3522 3597 3542 3235 2934 2844 2601 2193 1988 1632 1552 1396 866 587 897 1280
0 0 0 0 0 0 0 0 0 0 0 0 0 0 0 0 76 517 951 1094 1196 1274 1213 1229 1360 1543 1690 1741 1765 1835 1836 1860 1856 1798 1760 1705 1733 1707 1727 1757 1702 1728 1809 1893 1950 1991 1912 2024 2143 2155 2236 2193 2299 2322 2230 2342 2189 1951 1881 2057 2058 2056 1971 2085 2231 2232 2320 2394 2381 2573 2562 2799 2894 2804 2906 3189 3217 3586 3760 3716 3680 3693 3629 3572 3211 3078 2885 2666 2115 1381 1395 1426 1204 524 235 348 1119
0 0 0 0 0 0 0 0 0 0 0 0 0 0 0 37 4 53 824 1031 1104 1196 1210 1174 1267 1332 1460 1520 1620 1707 1746 1776 1864 1824 1820 1796 1817 1810 1796 1808 1761 1802 1901 1967 1991 1990 2039 2135 2199 2214 2231 2301 2327 2394 2302 2164 2055 2063 1864 1556 1445 1616 1824 1967 2076 2318 2317 2355 2117 2202 2467 2689 2770 2900 3019 3232 3162 3374 3795 3780 3796 3669 3728 3458 3224 3096 2969 2473 2026 1425 951 943 907 738 198 354 839
0 0 0 0 0 0 0 0 0 0 0 0 0 0 0 0 0 180 935 966 1034 1089 1106 1162 1214 1318 1311 1383 1459 1552 1597 1642 1693 1731 1761 1762 1806 1832 1849 1881 1859 1831 1954 1993 2004 2014 2135 2175 2224 2242 2270 2339 2341 2396 2369 2350 2226 2167 2015 1836 1814 1946 2116 2208 2468 2475 2460 2575 2370 2554 2713 2825 2861 2862 2985 3175 3316 3482 3743 3854 3821 3744 3602 3570 3374 3100 2956 2330 1983 1447 793 626 692 962 703 507 547
0 0 0 0 0 0 0 0 0 0 0 0 0 0 0 0 0 6 564 878 1022 1069 1094 1104 1118 1291 1203 1301 1305 1448 1501 1536 1606 1661 1662 1726 1816 1831 1899 1915 1892 1814 1930 2048 2108 2099 2190 2278 2311 2247 2176 2184 2267 2398 2419 2321 2180 2183 2211 2084 2176 2327 2209 2608 2848 2836 2833 2921 2844 2698 2746 2916 2971 2928 2973 3362 3530 3573 3740 3883 3863 3711 3734 3398 3246 3008 2815 2203 1964 1383 994 604 912 1080 818 632 580
0 0 0 0 0 0 0 0 0 0 0 0 0 0 0 0 46 4 352 682 950 1125 1151 1128 1108 1165 1189 1223 1254 1333 1407 1487 1498 1519 1551 1601 1691 1785 1875 1907 1873 1831 1819 1984 2141 2211 2292 2309 2314 2279 2266 2200 2237 2309 2372 2338 2270 2343 2348 2266 2340 2291 2321 2486 2636 2504 2584 2600 2674 2809 2972 2941 3201 3340 3284 3455 3689 3702 3820 3916 3819 3527 3460 3240 2834 3024 2650 2235 2039 1387 1244 1170 922 1281 1154 863 1087
0 0 0 0 0 0 0 0 0 0 0 0 0 0 0 0 0 0 380 245 608 937 1135 1133 1138 1110 1108 1124 1193 1213 1318 1404 1405 1442 1486 1489 1555 1656 1735 1805 1815 1782 1781 1928 2062 2134 2232 2285 2280 2303 2272 2212 2200 2260 2299 2355 2300 2372 2339 2311 2345 2404 2384 2415 2339 2447 2570 2732 2647 2894 3018 3231 3222 3439 3542 3616 3770 3902 3888 3726 3423 3253 3127 3034 3129 3027 2487 2154 2015 1351 1236 990 1092 1063 1326 1208 942
0 0 0 0 0 0 0 0 0 0 0 0 0 0 0 0 0 0 24 139 280 626 1115 1196 1192 1128 1061 1074 1089 1131 1190 1274 1326 1347 1386 1453 1439 1480 1567 1659 1756 1714 1701 1767 1859 1933 2052 2189 2250 2268 2256 2211 2209 2222 2241 2308 2284 2263 2301 2395 2356 2404 2536 2486 2434 2474 2548 2729 2643 2849 3065 3253 3362 3390 3372 3633 3796 3798 3668 3439 3255 3137 2783 2964 3115 3021 2516 2101 1886 1402 1168 1303 1277 996 1287 1254 1160
0 0 0 0 0 0 0 0 0 0 0 0 0 0 0 0 0 0 2 174 131 351 540 1034 1135 1159 1109 1094 1011 1047 1122 1200 1224 1263 1301 1351 1384 1340 1325 1453 1555 1609 1585 1618 1633 1720 1864 2006 2110 2213 2259 2245 2268 2197 2227 2220 2217 2252 2250 2303 2318 2377 2510 2378 2393 2409 2579 2652 2646 2862 3120 3291 3517 3514 3670 3487 3631 3473 3510 3250 3001 3117 2769 2900 3042 3008 2620 2116 1775 1593 1367 1291 1194 1125 1278 1298 1143
0 0 0 0 0 0 0 0 0 0 0 0 0 0 0 0 0 0 0 1 38 244 167 681 959 1072 1122 1042 1020 1033 1026 1095 1173 1205 1261 1274 1296 1275 1234 1321 1450 1573 1586 1526 1468 1537 1716 1926 2049 2166 2271 2240 2231 2182 2238 2246 2270 2286 2299 2282 2336 2469 2567 2521 2505 2445 2666 2633 2748 2892 3228 3257 3456 3477 3529 3438 3482 3526 3464 3163 2883 3039 2928 2804 2927 2828 2428 2049 1853 1761 1587 1213 1112 1289 1311 1227 1168
0 0 0 0 0 0 0 0 0 0 0 0 0 0 0 0 0 0 0 0 1 138 388 458 799 1068 1191 1140 1081 973 1028 1061 1095 1098 1176 1266 1317 1272 1228 1248 1431 1517 1473 1492 1439 1494 1648 1797 2020 2056 2230 2263 2264 2253 2239 2312 2374 2414 2429 2368 2353 2473 2489 2464 2488 2441 2631 2631 2866 2843 2892 2844 3321 3332 3270 3370 3369 3609 3489 3439 3317 3051 3142 2929 3070 2792 2274 2120 1865 1828 1733 1384 1157 1149 1339 1251 1114
0 0 0 0 0 0 0 0 0 0 0 0 0 0 0 0 0 0 0 0 0 13 142 414 621 918 1337 1168 1043 971 1020 1038 1069 1096 1107 1132 1320 1318 1196 1262 1320 1317 1311 1292 1385 1580 1908 1905 2080 2127 2234 2365 2290 2293 2246 2335 2389 2428 2494 2447 2471 2451 2358 2340 2426 2432 2583 2647 2687 2707 2884 2789 2986 3280 3355 3676 3685 3761 3652 3597 3480 3430 3206 2837 2957 2650 2202 2175 2015 1859 1823 1615 1063 1353 1200 1224 1062
0 0 0 0 0 0 0 0 0 0 0 0 0 0 0 0 9 0 0 0 0 4 33 179 412 535 655 834 913 875 863 936 1040 1086 1075 1161 1317 1379 1208 1162 1133 1204 1288 1226 1418 1763 1773 1807 2135 2203 2240 2379 2256 2254 2327 2355 2422 2477 2554 2523 2470 2431 2357 2348 2386 2537 2720 2711 2725 2703 2978 3058 3024 3218 3633 3762 3846 3702 3790 3679 3548 3431 3401 2967 2889 2603 2269 2219 2098 1971 1938 1768 1292 1072 1048 1237 1202
0 0 0 0 0 0 0 0 0 0 0 0 0 0 0 0 0 0 0 0 0 0 0 0 61 207 458 520 607 760 776 870 950 982 1025 1156 1228 1339 1164 1128 1046 1047 1161 1267 1622 1781 1731 1974 1976 2142 2206 2301 2320 2309 2335 2347 2468 2502 2536 2532 2525 2453 2443 2366 2268 2308 2100 2414 2601 2724 2758 2844 2967 3244 3481 3589 3642 3680 3727 3681 3483 3385 3319 3244 2902 2595 2302 2253 2160 2045 1994 1880 1481 940 964 1135 1083
0 0 0 0 0 0 0 0 0 0 0 0 0 0 0 0 0 0 0 0 0 0 0 0 4 91 245 242 436 590 625 726 888 1022 1131 1256 1162 1190 1092 1088 1007 991 1000 1193 1657 1647 1918 1947 1816 2031 2208 2267 2322 2318 2290 2379 2459 2494 2534 2536 2569 2555 2382 2222 2218 2234 2255 2390 2537 2641 2523 2749 2838 2929 3052 3208 3392 3629 3680 3564 3651 3657 3592 3261 2926 2624 2326 2252 2194 2102 2037 1983 1716 1288 1122 1202 1190
0 0 0 0 0 0 0 0 0 0 0 0 0 0 0 0 0 0 0 0 0 0 0 0 0 13 5 69 267 448 509 586 790 899 1068 1014 1101 1067 1064 998 934 934 1105 1408 1504 1462 1645 1686 1770 1761 1979 2055 2242 2115 2224 2359 2406 2381 2439 2537 2588 2606 2475 2405 2373 2423 2492 2523 2386 2462 2488 2610 2775 2867 3086 3267 3388 3380 3522 3573 3514 3603 3582 3288 3007 2717 2366 2227 2185 2118 2063 2029 1864 1512 1329 1274 1258
0 0 0 0 0 0 0 0 0 0 0 0 0 0 0 0 0 0 0 0 0 0 0 0 0 13 57 77 66 183 417 507 604 648 798 931 959 930 953 940 880 911 994 957 973 1144 1195 1372 1628 1680 1759 2040 2100 2072 2171 2336 2362 2320 2364 2505 2588 2651 2649 2593 2566 2595 2494 2427 2369 2326 2418 2424 2721 2709 2820 3084 3132 3158 3322 3296 3303 3283 3291 3217 3028 2755 2397 2212 2162 2121 2077 2016 1924 1620 1338 1332 1116
0 0 0 0 0 0 0 0 0 0 0 0 0 0 0 0 0 0 0 13 8 2 0 0 6 26 38 92 138 107 215 394 400 511 661 750 841 825 837 859 812 792 898 835 797 989 1098 1227 1438 1509 1780 1900 1924 1968 2099 2299 2225 2318 2432 2526 2559 2625 2623 2507 2530 2513 2431 2386 2413 2432 2411 2442 2724 2689 2650 2763 2999 3070 3236 3251 3130 3226 3186 3187 3119 2826 2465 2198 2164 2138 2084 2048 1976 1738 1368 1388 1288
0 0 0 0 0 0 0 0 0 0 0 0 0 0 0 0 0 0 0 13 1 0 2 10 1 2 33 46 105 266 172 284 383 411 462 588 729 770 758 792 801 719 716 710 687 819 948 1112 1271 1371 1437 1615 1586 1812 1996 2086 2277 2349 2386 2424 2327 2368 2439 2433 2404 2401 2438 2434 2445 2497 2522 2586 2631 2752 2681 2637 2925 2970 3169 3205 3098 3300 3272 3241 3161 2969 2480 2195 2166 2098 2097 2078 2007 1858 1550 1454 1382
Wind_Speed
16 15 14 15 14 12 10 14 15 12 16 17 18 17 15 18 15 15 13 12 11 10 11 7 nan nan 10 12 9 10 16 13 nan nan nan 12 8 6 8 8 5 3 1 2 3 3 4 4 5 8 10 10 9 9 11 16 18 12 11 11 10 10 10 9 9 9 9 9 9 8 7 6 5 4 3 3 2 1 1 2 3 4 4 4 6 6 6 6 6 5 5 5 4 4 4 4 4
11 12 13 14 14 11 10 11 14 14 14 16 13 16 14 14 17 16 14 13 12 9 8 6 5 6 7 1 4 6 12 15 14 12 nan 9 4 6 5 5 4 2 1 1 2 4 3 5 7 6 10 12 12 13 14 16 11 11 11 11 11 10 10 10 9 9 10 10 9 8 6 6 4 3 3 2 2 1 1 2 2 4 5 7 5 6 5 5 5 5 5 5 5 5 5 6 6
10 11 11 13 11 14 10 10 12 11 12 11 10 12 11 11 11 11 10 10 5 3 4 3 2 5 3 3 6 16 9 10 nan nan 9 5 4 9 5 5 4 3 2 1 3 4 4 5 8 7 12 14 16 15 14 10 10 11 11 11 11 11 11 10 10 10 10 9 8 6 6 5 4 4 2 2 1 1 1 1 2 3 4 4 4 3 5 5 4 4 4 5 6 6 6 6 7
8 10 10 12 12 12 11 9 10 9 8 10 11 7 10 7 5 5 7 5 4 5 5 6 5 14 9 6 6 6 6 6 nan 2 5 6 10 7 6 6 5 3 1 1 3 3 3 6 8 10 12 11 11 11 11 11 11 12 12 12 12 11 11 9 9 10 10 8 6 6 6 5 5 4 3 1 1 1 1 1 2 2 3 2 2 4 4 5 5 5 4 5 5 5 6 6 6
7 9 9 11 12 10 10 8 8 8 6 7 8 9 7 4 1 2 3 2 4 6 6 2 5 9 11 7 9 11 5 6 nan 4 4 5 4 6 6 5 4 3 2 2 3 3 4 10 9 12 11 13 12 12 12 12 12 11 12 12 11 10 9 9 10 10 8 7 7 7 6 5 4 3 2 2 1 1 1 2 2 3 3 4 4 4 4 4 4 5 4 5 5 5 5 5 6
6 7 9 12 10 7 9 9 8 8 7 6 7 7 5 3 3 5 4 1 4 5 3 1 4 3 7 11 12 8 1 6 1 3 2 4 5 7 7 6 5 3 3 3 4 3 5 11 12 12 11 13 13 12 12 12 11 11 10 10 9 9 9 9 9 9 7 7 7 6 5 5 4 2 2 1 2 2 2 1 2 2 3 4 3 3 3 3 4 5 5 4 5 5 6 6 6
7 6 10 12 11 11 9 7 6 6 2 6 6 5 1 3 5 7 5 4 6 5 9 5 4 3 5 7 7 6 8 6 2 2 4 2 5 7 7 7 6 5 5 4 4 4 9 10 9 12 13 12 12 11 10 10 9 9 9 9 9 9 8 8 8 8 7 6 6 6 6 5 4 3 2 2 2 2 1 1 2 3 4 4 3 3 3 3 3 2 3 3 3 4 4 5 6
7 10 6 11 10 12 11 8 7 6 1 6 3 2 4 5 6 5 5 1 1 4 6 2 5 8 9 9 8 6 8 4 3 4 1 4 5 6 7 6 6 6 6 5 5 5 10 13 12 13 13 13 13 12 11 10 9 9 8 8 8 8 8 8 8 7 7 6 7 7 7 7 6 4 4 4 4 3 2 2 2 3 3 3 4 4 3 3 3 3 2 2 1 1 3 3 3
6 7 6 10 12 11 11 8 5 4 6 5 3 3 7 8 5 5 2 4 3 4 1 3 6 7 6 6 8 6 6 4 5 6 6 7 6 6 4 6 6 5 6 6 6 7 10 12 14 13 12 12 12 11 10 9 8 8 8 8 8 8 8 7 7 7 7 7 8 9 9 9 8 8 8 7 7 6 4 3 3 3 4 4 5 5 5 5 4 3 2 2 2 1 1 2 2
4 7 5 10 11 12 10 nan 6 2 6 3 4 9 10 9 8 4 4 2 2 3 4 7 9 8 4 7 7 7 4 3 6 7 8 9 6 5 6 7 8 8 7 6 7 8 8 13 14 13 11 11 10 9 8 8 7 7 8 7 7 7 8 8 8 8 8 9 10 11 11 10 11 11 11 11 10 9 8 7 7 7 7 8 8 8 7 6 5 4 3 2 1 1 2 1 1
5 5 6 11 12 14 7 4 nan nan nan 5 5 8 9 8 9 6 2 4 4 4 5 5 9 8 5 8 11 11 4 3 6 8 9 9 7 6 7 7 8 10 8 8 8 8 9 10 13 13 11 10 9 8 7 7 7 7 7 7 7 7 8 8 8 9 9 10 12 12 12 12 12 13 13 12 11 10 9 9 9 10 10 10 10 10 10 9 9 8 7 6 4 4 5 4 5
7 6 5 10 15 15 9 9 nan nan 8 7 4 7 6 8 6 5 4 6 2 3 1 4 3 6 8 7 8 6 3 1 5 7 8 8 6 8 7 6 8 9 10 10 10 10 10 8 8 9 10 9 8 7 7 6 7 7 7 7 7 8 8 9 9 10 11 12 13 13 13 13 13 13 13 12 11 11 10 10 10 10 10 11 10 11 11 10 10 10 8 8 7 7 7 7 7
9 5 6 10 15 15 12 9 8 11 8 8 4 5 5 7 3 2 3 3 2 2 2 6 6 2 6 5 8 6 2 2 3 7 8 7 6 6 7 7 8 9 9 10 11 12 11 8 5 6 6 8 7 7 6 6 6 7 6 7 8 8 9 10 10 11 12 13 14 15 15 14 13 13 13 12 11 10 10 10 9 9 10 11 11 10 11 11 10 10 10 8 8 8 8 8 8
8 6 7 11 13 16 11 8 8 8 7 6 6 3 5 3 1 3 3 2 1 3 5 2 1 3 9 8 5 4 2 3 5 8 6 9 6 7 9 8 9 10 11 11 12 13 12 9 4 4 5 5 6 6 6 6 6 7 7 8 9 9 9 10 11 12 13 14 15 15 15 14 13 13 13 12 11 10 9 9 9 10 12 12 11 10 10 10 10 11 11 11 10 10 10 9 9
9 7 7 11 13 12 5 6 8 5 8 5 3 4 4 4 2 3 2 4 2 8 6 3 5 3 3 5 5 7 7 7 6 6 6 7 9 8 10 9 9 10 10 12 12 12 11 8 5 3 5 6 7 7 6 6 7 7 8 9 9 10 10 11 12 13 14 15 15 15 15 14 13 13 13 12 11 10 9 10 10 10 12 10 10 11 11 10 10 12 13 12 13 11 11 11 10
10 10 8 10 10 10 6 8 nan 6 6 5 2 2 2 4 2 3 4 5 6 4 3 3 7 12 5 6 2 12 15 13 8 6 6 7 8 8 9 10 9 10 10 11 12 10 9 8 5 3 5 7 7 7 6 6 7 8 9 10 10 11 12 12 13 14 15 15 15 15 14 14 13 14 13 13 11 10 10 12 11 11 11 11 10 10 11 10 10 12 13 13 13 12 13 12 11
10 10 9 9 10 8 7 8 nan 8 nan 3 5 2 3 3 3 8 6 5 7 4 2 4 2 11 4 6 7 13 16 16 11 8 7 6 6 6 7 7 7 9 8 11 10 9 8 7 6 4 6 6 8 6 7 7 7 9 10 11 11 11 13 14 14 15 15 14 14 14 14 15 13 14 14 13 11 11 10 12 12 10 11 10 10 10 10 11 12 13 12 13 12 13 13 13 11
8 7 8 9 10 8 6 7 nan nan nan 3 8 6 0 1 1 3 5 3 0 4 3 4 8 9 6 7 10 11 14 17 14 11 7 6 5 7 8 8 8 10 10 10 10 8 7 7 5 5 6 6 7 7 8 9 8 11 11 11 12 12 13 15 14 15 15 14 13 13 14 13 13 13 13 13 13 11 11 11 11 9 11 11 12 9 10 11 12 13 13 13 12 12 12 14 14
7 8 6 10 7 8 7 9 12 nan nan 4 6 8 6 5 6 3 2 1 4 4 2 2 6 9 12 10 12 11 11 14 16 12 10 10 8 11 10 10 11 12 12 11 9 9 6 5 5 6 6 6 6 7 8 9 9 11 11 12 13 14 13 15 15 14 14 13 13 12 13 13 12 13 13 13 13 12 11 11 10 8 8 8 10 10 11 12 13 13 13 13 13 12 14 13 14
6 9 7 7 9 10 8 10 11 nan nan 4 5 6 6 2 5 4 7 4 6 9 5 5 5 7 11 12 13 13 10 11 14 13 12 10 10 11 12 13 13 14 14 13 10 6 6 5 5 5 6 6 6 8 8 9 10 11 12 12 13 14 14 15 15 13 13 12 12 12 12 12 12 12 12 14 15 12 10 11 10 9 10 10 13 13 12 10 12 13 12 13 14 13 12 12 12
8 6 7 12 12 10 9 6 8 11 8 5 4 3 4 4 5 7 3 3 11 12 13 15 14 12 13 15 15 14 13 11 12 12 11 11 9 8 9 11 12 13 12 11 8 6 6 6 5 6 6 5 6 8 9 10 10 12 12 13 14 15 14 14 14 12 12 11 11 12 12 11 11 12 12 12 12 11 11 10 10 10 10 10 11 11 11 10 11 11 12 12 11 12 11 11 12
10 5 7 10 13 12 9 7 8 8 nan nan 5 7 7 1 5 10 9 10 10 15 17 13 12 17 17 19 18 16 17 15 12 11 11 10 10 9 8 10 10 10 10 9 8 6 6 5 6 7 6 6 6 7 8 9 10 12 12 13 14 14 14 14 13 12 11 11 11 12 11 10 10 11 11 12 12 12 12 10 10 10 10 10 10 10 10 10 11 11 11 11 11 11 10 10 9
8 7 10 10 12 16 12 7 7 10 nan 4 5 5 2 7 9 11 12 17 7 5 9 11 12 17 18 19 21 20 19 18 15 13 11 10 9 8 8 8 10 10 8 9 7 5 5 5 6 7 6 6 6 7 8 9 10 11 12 12 13 13 13 13 11 11 10 10 11 11 11 9 9 10 10 11 11 11 11 10 10 10 10 10 9 10 10 10 10 10 11 11 10 10 9 9 10
6 10 10 7 8 14 11 12 12 10 nan nan 2 5 6 9 11 10 15 16 9 5 10 11 13 13 18 19 20 23 22 19 17 14 13 11 11 10 9 9 7 8 8 8 6 5 4 5 6 7 6 6 7 7 8 9 10 10 11 12 13 12 12 12 11 10 9 9 10 10 10 10 9 10 10 10 10 10 10 9 9 10 10 9 9 10 10 9 10 10 10 10 9 8 8 8 9
3 9 8 9 10 13 13 12 11 nan nan nan 3 5 12 13 11 5 18 13 5 3 9 14 16 17 18 19 20 19 19 16 14 13 10 8 8 9 9 7 8 8 10 9 5 4 5 4 5 7 6 6 7 7 8 9 9 10 11 12 13 11 12 11 10 9 9 9 9 10 10 9 9 10 10 9 9 9 9 9 9 9 9 9 9 9 9 8 9 10 9 9 8 8 8 7 7
4 8 14 10 nan nan nan 12 nan nan nan nan 3 10 12 11 4 14 14 8 1 5 10 16 18 19 20 20 18 19 18 17 15 13 11 9 8 10 9 7 8 9 9 9 6 3 4 4 5 5 6 7 7 6 8 8 9 9 10 11 12 11 11 10 9 9 9 9 9 9 9 10 9 9 9 8 8 8 8 7 7 8 8 8 9 8 8 8 9 9 8 8 7 6 7 6 6
nan nan nan nan nan nan nan nan nan nan nan nan nan 10 9 4 6 14 7 7 6 8 13 16 20 21 20 19 17 15 16 16 16 12 9 8 8 7 7 6 7 7 8 8 5 1 3 4 5 5 6 6 6 6 7 8 8 9 9 10 11 11 10 9 9 9 8 8 8 8 9 9 10 9 9 8 8 8 8 7 7 6 7 7 7 8 7 7 7 8 6 6 5 6 6 5 5
nan nan nan nan nan nan nan nan nan nan nan nan nan nan 4 5 10 18 8 9 11 12 14 18 20 20 18 20 18 15 11 10 9 10 12 11 7 5 6 4 7 6 7 7 4 1 3 4 5 6 5 6 6 7 7 8 8 8 8 9 10 10 9 9 8 8 8 8 8 8 9 9 9 9 9 8 8 8 8 7 6 6 6 7 6 6 6 6 6 6 7 7 6 7 6 5 5
nan nan nan nan nan nan nan nan nan nan nan nan nan nan 3 6 17 15 10 10 13 13 16 20 21 20 18 18 18 15 13 12 10 9 10 7 6 6 8 8 8 6 3 6 4 2 3 4 5 5 6 6 6 7 7 7 8 8 7 8 9 9 8 8 8 7 7 7 7 8 8 9 9 8 8 9 8 8 7 7 6 6 6 6 5 4 5 6 6 7 7 8 8 7 6 5 5
nan nan nan nan nan nan nan nan nan nan nan nan nan nan nan 15 16 6 12 13 12 12 15 19 19 19 18 18 17 15 13 14 13 11 9 7 7 7 9 10 9 6 3 3 4 4 5 6 5 5 5 6 6 7 7 7 8 8 8 8 8 8 8 7 7 7 7 7 7 7 7 8 8 8 9 9 9 8 8 6 6 6 6 5 5 6 6 6 7 7 7 8 7 7 7 5 5
nan nan nan nan nan nan nan nan nan nan nan nan nan nan nan 11 11 7 13 16 18 16 16 19 19 19 18 18 17 17 16 14 13 11 10 9 6 5 8 8 8 8 3 3 4 4 4 5 4 5 4 6 5 5 5 6 7 7 8 8 8 7 7 7 6 6 7 7 6 6 7 7 8 9 9 9 8 8 8 6 6 6 6 5 6 6 5 5 8 8 7 8 8 8 7 6 5
nan nan nan nan nan nan nan nan nan nan nan nan nan nan nan nan 6 6 11 15 17 16 17 18 19 19 19 18 18 17 16 14 12 10 7 7 6 5 6 7 8 7 5 3 4 4 4 4 3 4 3 5 4 5 5 6 7 7 7 7 8 7 7 7 7 7 7 7 7 6 6 7 7 7 8 9 8 8 7 6 6 6 5 5 5 6 7 8 8 8 8 8 9 8 8 8 7
nan nan nan nan nan nan nan nan nan nan nan nan nan nan nan nan 5 7 10 14 17 16 18 18 20 21 20 19 17 16 16 15 12 10 7 4 4 3 4 6 6 6 4 4 4 3 3 3 3 4 4 4 4 5 5 6 6 7 7 7 8 8 8 8 8 8 7 7 7 8 6 6 7 6 7 7 7 7 6 6 6 6 6 5 6 5 5 5 8 9 9 9 9 10 9 8 8
nan nan nan nan nan nan nan nan nan nan nan nan nan nan nan 17 9 4 8 13 15 15 18 20 20 20 21 19 18 17 16 16 15 12 9 6 2 4 3 4 5 5 5 5 4 2 3 3 3 5 4 3 4 5 5 6 5 6 7 7 8 9 9 9 9 8 8 8 8 9 7 7 6 6 6 6 7 7 7 7 7 6 6 6 5 5 5 6 8 8 9 10 10 10 10 8 8
nan nan nan nan nan nan nan nan nan nan nan nan nan nan nan 15 10 8 9 13 15 16 17 20 22 22 21 20 19 19 17 18 17 13 11 8 5 5 3 3 4 4 5 5 4 2 2 3 4 5 5 4 4 4 5 5 5 6 7 8 8 9 10 10 10 9 9 9 9 9 8 7 7 6 6 7 8 8 8 8 8 8 7 7 6 5 5 6 7 9 10 11 11 11 9 8 7
nan nan nan nan nan nan nan nan nan nan nan nan nan nan nan 14 10 9 9 11 14 14 11 13 17 19 19 18 18 18 17 19 16 14 12 7 5 3 3 3 3 4 6 6 3 2 5 4 4 4 5 4 3 3 4 4 5 6 6 7 9 10 10 10 10 9 9 9 10 9 8 8 7 6 7 8 9 9 9 9 10 10 9 8 7 8 8 7 9 10 12 13 13 12 11 9 8
nan nan nan nan nan nan nan nan nan nan nan nan nan nan nan nan 11 9 8 8 12 11 11 12 15 17 19 18 18 19 18 17 14 13 11 10 8 5 4 3 3 3 5 5 3 6 6 5 5 6 4 4 3 2 3 4 5 6 7 7 7 7 8 8 9 9 9 10 9 9 8 8 7 7 8 8 8 9 9 10 11 11 11 10 9 10 10 9 9 8 10 11 11 11 10 9 8
nan nan nan nan nan nan nan nan nan nan nan nan nan nan nan nan 16 11 8 7 11 12 12 12 13 16 17 20 20 19 15 8 10 9 9 8 6 6 4 3 4 5 6 4 4 5 6 6 5 3 3 4 3 1 2 3 4 4 3 5 5 5 6 7 8 9 10 9 8 8 9 9 9 8 8 8 8 9 10 10 11 12 11 11 10 11 10 9 10 10 10 11 10 11 11 9 10
nan nan nan nan nan nan nan nan nan nan nan nan nan nan nan nan 17 13 7 5 8 10 11 13 12 13 13 16 18 16 12 10 10 10 8 6 7 6 4 4 5 5 4 4 4 4 5 6 5 3 3 2 2 1 1 2 2 3 3 4 4 5 7 7 9 9 8 9 8 8 9 9 9 9 9 8 7 8 10 11 11 11 12 11 11 12 11 11 11 12 13 12 12 12 12 12 13
nan nan nan nan nan nan nan nan nan nan nan nan nan nan nan nan nan 13 9 7 7 8 11 14 13 12 14 18 18 16 14 11 11 11 10 6 6 4 3 2 3 4 4 3 3 5 4 5 4 5 2 2 1 2 1 0 1 2 4 5 5 7 8 8 9 10 9 9 9 8 8 8 9 9 9 9 7 8 9 10 11 11 11 11 12 12 11 11 11 11 13 13 13 13 14 14 13
nan nan nan nan nan nan nan nan nan nan nan nan nan nan nan nan nan 16 14 12 12 8 9 12 14 15 13 10 12 13 15 13 10 9 9 7 5 4 3 1 3 3 4 3 3 3 4 4 3 3 2 3 0 2 2 0 1 3 4 6 8 9 11 11 9 9 9 8 8 8 8 8 8 9 9 9 8 9 9 9 11 11 11 11 11 11 11 11 12 12 13 12 14 12 12 13 12
nan nan nan nan nan nan nan nan nan nan nan nan nan nan nan nan nan nan 18 15 8 7 7 10 11 13 13 14 16 14 13 11 10 10 11 9 5 1 2 3 4 3 4 4 3 3 3 3 3 2 2 2 1 2 3 1 2 3 4 5 7 8 9 7 6 6 7 8 9 8 7 7 8 9 9 9 9 8 8 9 10 10 10 10 10 10 10 10 11 12 12 12 13 13 11 12 13
nan nan nan nan nan nan nan nan nan nan nan nan nan nan nan nan nan 20 18 13 8 10 11 10 10 12 14 15 15 14 14 11 9 8 7 8 6 4 5 4 5 4 4 4 4 3 3 2 3 3 2 2 2 2 3 1 2 4 3 4 5 4 4 5 6 7 7 6 5 5 3 5 7 9 9 9 9 9 7 8 10 9 9 8 8 9 9 11 10 11 10 11 12 11 11 12 14
nan nan nan nan nan nan nan nan nan nan nan nan nan nan nan nan nan nan 19 15 13 12 11 9 9 12 13 14 17 16 13 12 10 10 9 8 7 7 7 7 5 4 3 4 4 3 4 4 3 4 2 2 2 1 2 0 1 3 3 4 4 4 4 5 5 6 6 6 3 4 3 3 5 7 9 9 10 9 7 8 9 8 7 7 8 8 9 9 9 9 11 12 12 12 13 14 14
nan nan nan nan nan nan nan nan nan nan nan nan nan nan nan nan nan nan 23 20 15 13 10 8 11 12 11 13 16 16 14 12 11 9 10 9 8 7 6 5 5 3 4 4 3 3 3 2 2 2 2 1 1 3 2 2 1 2 2 3 4 5 5 6 6 5 6 4 3 2 1 2 4 7 9 10 10 9 8 7 8 7 6 7 8 8 8 9 11 12 12 12 14 14 14 14 13
nan nan nan nan nan nan nan nan nan nan nan nan nan nan nan nan nan nan 27 20 13 11 10 10 10 10 10 11 13 15 13 11 10 10 9 8 6 5 5 3 2 3 5 5 4 4 3 2 2 3 4 1 0 3 2 3 2 1 1 2 1 3 4 5 5 4 4 3 1 0 1 2 3 6 9 10 11 11 9 8 7 7 6 6 7 8 8 9 11 12 14 14 15 16 15 15 15
nan nan nan nan nan nan nan nan nan nan nan nan nan nan nan nan nan nan nan 16 12 15 15 13 12 10 10 11 10 12 13 11 9 9 8 8 5 4 3 3 3 2 3 3 2 2 2 2 2 4 4 0 1 3 3 4 2 1 1 1 1 1 1 3 5 4 4 4 2 2 3 3 4 6 8 10 12 12 11 10 8 6 5 5 7 7 8 9 11 12 12 14 15 16 15 16 15
nan nan nan nan nan nan nan nan nan nan nan nan nan nan nan nan nan nan nan 17 13 14 14 11 10 9 9 9 9 11 12 9 8 7 7 7 5 4 3 3 1 2 1 1 1 1 1 1 0 2 2 3 2 3 4 3 2 2 1 2 2 0 1 4 3 3 5 5 5 5 5 5 6 7 8 10 13 15 13 11 9 6 4 5 7 7 8 9 10 11 11 13 14 16 15 15 14
nan nan nan nan nan nan nan nan nan nan nan nan nan nan nan nan nan nan nan nan nan 15 16 13 10 9 8 7 8 8 8 7 6 6 5 4 7 7 6 3 0 2 2 2 1 1 2 3 1 1 1 3 3 4 5 5 4 3 3 3 3 3 3 4 5 4 6 6 7 6 7 7 7 8 8 10 14 18 16 13 11 7 5 5 7 8 8 10 10 11 12 14 15 16 15 16 15
nan nan nan nan nan nan nan nan nan nan nan nan nan nan nan nan nan nan nan nan nan 15 17 15 12 9 7 6 5 4 4 5 6 4 4 4 4 6 7 4 2 3 2 4 3 3 5 5 3 1 1 4 4 4 5 5 5 5 5 5 5 5 4 5 6 6 7 7 7 7 8 8 8 8 9 11 14 18 18 16 13 8 5 6 9 10 10 10 11 11 13 15 15 14 14 16 16
nan nan nan nan nan nan nan nan nan nan nan nan nan nan nan nan nan nan nan nan nan nan 14 15 14 13 10 8 5 2 1 3 3 1 4 6 4 5 5 4 2 2 3 3 5 5 7 7 5 3 3 4 5 5 6 6 6 6 7 7 7 7 6 7 7 7 8 8 7 7 8 8 8 8 9 11 14 18 19 17 14 10 7 7 10 10 10 10 11 11 12 14 13 13 14 15 15
nan nan nan nan nan nan nan nan nan nan nan nan nan nan nan nan nan nan nan nan nan nan nan 16 17 17 15 16 12 6 1 2 2 3 4 5 3 2 2 3 3 3 5 4 5 6 5 5 6 5 5 5 5 6 6 7 7 8 8 8 7 7 8 8 9 10 10 10 9 8 9 10 9 9 10 11 14 17 19 18 15 11 9 9 11 11 12 10 11 12 12 12 13 11 14 15 14
nan nan nan nan nan nan nan nan nan nan nan nan nan nan nan nan nan nan nan nan nan nan nan nan nan 17 17 16 11 7 4 2 3 5 6 6 3 2 1 3 3 4 6 6 6 7 6 6 6 6 6 6 6 6 6 8 9 10 9 9 9 8 8 9 9 9 9 11 11 10 9 10 11 10 9 11 13 16 18 18 15 11 10 12 12 12 12 11 12 12 12 13 13 13 13 14 15
nan nan nan nan nan nan nan nan nan nan nan nan nan nan nan nan nan nan nan nan nan nan nan nan nan nan 18 15 12 9 4 3 5 6 6 8 8 5 2 2 4 5 7 8 8 8 7 7 7 8 9 8 8 8 8 9 10 10 10 10 10 9 9 9 9 11 12 13 13 12 11 11 11 11 11 12 14 17 18 18 15 12 13 14 13 12 13 12 12 11 12 13 13 13 12 12 14
nan nan nan nan nan nan nan nan nan nan nan nan nan nan nan nan nan nan nan nan nan nan nan nan nan nan nan nan 10 8 5 4 2 3 3 8 9 9 6 4 4 5 6 8 11 10 10 9 9 9 10 10 11 11 11 12 12 12 12 11 12 11 10 10 11 13 15 14 14 15 13 12 12 13 13 13 15 16 18 17 14 12 13 14 14 13 14 13 13 11 12 13 13 13 12 13 14
nan nan nan nan nan nan nan nan nan nan nan nan nan nan nan nan nan nan nan nan nan nan nan nan nan nan nan nan nan 10 9 5 3 1 3 8 11 13 12 8 6 6 8 8 11 11 11 12 13 11 11 12 12 13 14 14 14 13 13 14 14 13 13 13 13 15 15 14 15 15 15 14 13 14 13 14 15 16 18 17 14 12 12 13 14 13 14 14 13 11 12 13 14 14 13 13 14
nan nan nan nan nan nan nan nan nan nan nan nan nan nan nan nan nan nan nan nan nan nan nan nan nan nan nan nan 15 15 9 6 5 4 1 7 11 13 12 9 7 6 9 12 13 12 11 13 14 15 16 17 16 15 16 15 15 14 15 16 16 15 15 14 14 14 14 14 15 16 16 16 16 15 15 15 16 17 18 17 14 12 12 13 14 14 14 14 13 12 12 13 14 15 15 14 14
nan nan nan nan nan nan nan nan nan nan nan nan nan nan nan nan nan nan nan nan nan nan nan nan nan nan nan nan 17 15 11 6 6 5 1 4 9 11 12 10 11 11 11 13 13 13 13 13 13 15 15 16 16 16 16 17 16 16 16 15 15 15 15 15 15 15 15 16 17 18 18 19 17 16 17 16 17 18 19 17 13 12 13 13 15 15 15 15 14 13 13 12 12 15 15 16 16
Wind_Direction
34 43 43 46 57 58 44 72 91 88 92 94 98 95 107 106 112 105 104 97 91 95 99 60 nan nan 92 96 116 139 141 102 nan nan nan 127 92 94 84 107 95 77 122 139 107 85 24 38 39 1 351 349 352 0 11 16 19 348 349 350 349 347 346 348 352 358 5 9 12 12 8 4 10 14 22 33 36 38 231 213 204 204 202 194 188 179 182 186 193 201 210 218 216 213 208 201 194
33 38 42 52 60 63 71 74 95 93 89 98 96 99 107 104 102 114 104 96 110 83 84 60 79 128 122 117 117 125 161 154 139 137 nan 123 74 95 79 75 65 23 65 126 79 62 37 36 34 16 351 353 354 7 13 13 345 347 350 349 349 348 349 352 357 3 8 11 12 9 1 0 4 4 15 36 49 70 152 189 193 192 193 209 187 174 174 169 182 193 205 217 220 217 212 207 198
28 38 42 58 68 74 87 75 89 98 102 102 103 103 95 106 120 117 111 108 84 49 41 49 95 120 105 95 102 121 135 144 nan nan 144 87 75 91 45 36 41 16 336 125 50 42 47 39 24 30 5 2 357 4 0 347 346 349 354 352 351 353 354 358 2 8 12 14 10 1 358 356 356 2 6 31 65 92 114 155 184 183 187 208 191 188 181 180 181 184 200 215 219 217 213 212 205
30 53 50 59 63 66 71 73 90 102 110 117 111 114 108 117 131 135 122 108 28 4 16 21 82 129 99 99 139 161 161 140 nan 124 136 77 110 72 43 14 15 28 354 100 38 45 54 30 25 35 7 350 350 350 348 347 349 354 354 354 355 358 359 6 13 18 18 13 3 1 1 354 359 3 8 24 73 107 136 168 181 174 180 205 192 187 193 189 185 195 201 214 219 213 210 215 213
37 59 66 80 84 58 67 74 82 79 118 107 145 129 125 123 200 205 171 103 39 28 32 105 154 161 167 169 131 125 145 184 nan 125 126 116 106 64 41 21 33 25 3 2 18 13 35 7 24 34 352 347 348 348 349 352 354 359 360 358 0 4 8 13 21 23 18 9 5 6 2 360 6 10 20 43 92 130 159 181 180 179 172 185 192 187 179 180 192 201 211 219 219 216 209 216 215
49 60 82 103 89 90 66 54 47 65 108 97 121 162 154 162 243 263 261 188 109 91 95 84 138 104 140 149 138 139 239 155 95 123 54 117 18 21 27 34 35 33 357 2 1 10 9 9 28 5 345 345 347 347 352 357 359 4 5 6 9 11 15 19 24 25 18 12 12 11 8 8 12 14 37 80 118 129 138 165 173 175 168 177 202 185 173 179 187 187 197 215 218 219 215 212 219
47 68 98 93 81 72 71 69 77 88 99 71 121 136 236 253 266 280 275 242 162 151 133 158 227 218 165 145 170 178 164 196 352 84 86 6 9 15 25 37 26 13 2 2 356 337 344 355 14 350 345 344 344 347 356 2 7 11 11 15 16 17 19 25 29 27 22 21 21 21 25 29 31 43 71 116 115 112 129 193 189 176 184 179 192 205 187 172 178 173 169 196 203 208 221 218 216
70 101 92 105 106 82 65 69 80 78 70 56 128 70 323 303 296 285 304 285 60 107 148 174 142 165 177 143 141 157 179 169 227 295 305 340 1 12 21 29 27 13 3 359 351 338 334 351 354 350 345 345 346 352 359 6 12 17 19 21 22 22 24 30 34 35 34 32 38 43 45 51 59 71 85 93 95 105 132 182 195 192 188 182 182 195 213 183 171 170 196 231 256 270 254 250 237
75 95 125 111 109 91 76 69 86 68 107 75 62 350 323 323 320 301 298 184 222 176 177 141 157 147 168 193 183 164 178 219 270 297 318 329 348 1 36 16 14 20 3 356 345 339 345 350 352 343 345 346 348 354 2 11 15 21 24 25 26 29 33 37 44 47 48 49 54 57 61 65 74 78 81 83 86 89 104 116 120 124 131 133 142 157 175 179 177 174 205 266 284 285 292 284 281
91 114 126 124 117 105 95 nan 80 75 102 93 21 346 332 327 319 322 294 282 221 251 193 178 173 197 226 208 194 155 181 255 299 303 324 330 339 355 353 356 353 355 3 352 342 341 347 348 350 344 345 350 353 0 8 18 20 24 29 30 34 40 45 46 52 58 62 62 63 66 67 71 75 78 79 81 83 88 94 100 100 104 106 110 115 123 133 135 131 126 124 129 81 70 80 58 48
115 119 139 110 113 118 126 151 nan nan nan 100 43 355 337 326 319 313 312 259 264 222 204 216 224 251 220 204 188 180 207 271 324 330 334 331 335 346 346 352 352 353 356 349 340 338 343 352 351 349 349 355 1 9 16 22 23 28 35 39 44 52 55 55 60 65 69 68 69 70 71 72 75 77 80 81 83 89 93 97 101 102 106 108 106 106 108 105 102 103 100 97 87 77 75 76 68
122 124 129 119 122 129 145 146 nan nan 122 100 54 8 354 327 312 306 309 301 274 260 219 90 214 265 231 223 192 190 195 310 349 332 334 329 337 337 338 355 352 355 350 344 339 339 343 345 6 357 356 0 16 22 26 27 26 33 41 47 53 59 60 62 66 70 73 73 74 75 75 74 76 78 79 80 84 87 90 93 98 101 104 104 104 102 95 93 94 94 93 95 88 81 74 68 69
130 129 142 124 135 128 145 126 157 146 130 95 72 50 7 336 350 310 314 248 320 342 97 123 302 198 235 242 222 216 201 313 343 343 333 332 329 327 329 339 344 349 348 344 344 342 342 348 6 19 17 13 29 35 34 32 34 41 46 53 60 62 64 69 71 74 77 77 78 78 76 77 76 76 77 79 80 86 89 94 100 109 102 96 89 88 86 83 86 88 91 94 86 82 76 67 60
128 137 144 144 138 131 135 144 151 154 132 151 117 48 31 39 150 283 270 265 41 104 179 233 355 210 253 259 262 259 235 301 333 347 341 331 318 318 321 328 338 345 348 348 348 346 345 353 349 37 46 65 75 54 40 38 42 49 52 58 61 65 69 73 75 76 78 79 80 79 78 76 76 76 76 78 80 83 90 94 95 92 91 82 80 76 80 84 83 88 84 84 83 79 75 72 65
131 158 141 150 136 129 145 148 190 167 176 170 150 31 46 141 260 285 323 271 206 189 214 205 150 101 114 348 332 324 307 315 322 335 332 327 321 313 316 324 333 340 347 349 347 350 353 351 1 66 85 102 89 95 88 63 46 55 59 62 65 68 73 75 78 81 80 80 81 80 79 78 79 78 79 80 84 84 85 83 91 84 87 91 88 82 83 86 86 86 82 76 77 73 71 71 70
136 147 155 159 143 136 171 153 nan 195 192 190 233 72 57 196 315 307 210 198 233 222 297 156 115 151 183 100 302 314 310 308 307 317 320 327 317 305 312 323 330 339 345 348 349 355 1 4 19 100 102 103 111 105 91 79 65 60 65 65 67 72 76 78 81 83 82 82 82 82 83 82 80 81 81 81 83 88 90 98 92 90 89 87 89 90 89 91 94 84 78 76 70 67 71 64 70
150 148 151 169 141 134 175 165 nan 205 nan 238 298 351 103 187 240 208 210 244 294 328 131 169 110 165 133 146 288 302 309 304 296 309 315 321 315 302 305 311 324 339 342 349 353 359 8 13 31 87 96 97 105 103 109 97 84 68 75 72 72 75 80 82 83 83 84 83 83 84 84 89 88 89 87 88 87 91 99 92 93 94 97 99 93 88 90 91 92 89 79 76 72 69 63 65 62
169 146 164 160 139 132 156 160 nan nan nan 262 347 10 348 207 54 231 249 220 190 338 155 231 194 190 214 228 282 297 311 311 308 315 324 325 322 310 314 320 329 341 345 347 356 4 14 26 45 80 104 90 101 117 120 114 102 84 89 92 91 88 86 87 89 93 90 93 86 89 93 94 94 95 95 96 94 90 84 95 96 92 85 75 90 84 92 91 92 89 84 81 74 70 74 66 64
169 163 172 166 154 153 174 171 191 nan nan 198 359 6 25 47 9 25 31 4 2 28 117 325 243 251 260 277 285 300 318 321 317 319 331 337 334 329 326 325 336 339 348 350 354 3 25 38 56 90 101 104 103 110 118 111 100 100 97 107 110 99 102 97 99 97 97 98 96 97 97 98 96 97 97 100 104 102 100 98 98 98 104 106 93 85 88 81 86 85 84 84 84 74 60 62 66
161 169 178 156 147 150 160 171 175 nan nan 238 342 7 39 15 57 38 65 1 30 35 16 8 327 310 302 305 303 305 319 326 325 323 334 336 338 335 333 336 339 344 348 354 353 2 22 57 61 93 104 102 112 116 117 114 108 105 108 112 113 114 113 112 106 105 104 102 102 103 102 101 101 100 100 96 95 97 94 90 98 86 85 82 96 79 73 70 77 69 71 75 62 61 60 58 59
218 181 179 188 164 149 159 138 147 153 150 152 347 306 61 35 77 64 53 8 59 63 34 6 359 336 320 321 315 316 318 326 331 328 328 337 334 331 331 333 339 343 345 345 351 4 29 60 81 98 106 107 105 120 118 116 112 112 114 115 116 117 117 117 113 109 108 104 105 105 103 104 104 105 103 101 103 105 104 100 91 94 90 84 85 83 79 75 72 69 64 64 61 63 61 58 59
214 150 149 165 179 165 167 188 181 160 nan nan 310 349 71 108 98 75 30 59 68 51 35 37 351 332 329 327 322 318 321 320 331 330 331 334 338 336 325 327 334 335 339 351 358 7 34 66 90 109 102 103 104 119 122 123 118 116 118 120 119 122 121 118 118 115 113 106 107 107 105 102 103 105 103 101 100 100 99 99 98 94 89 85 81 80 79 77 73 67 64 61 57 53 54 59 62
182 160 140 144 141 140 174 179 184 184 nan 266 343 27 247 40 87 73 52 60 131 97 30 9 353 342 335 325 320 324 325 325 329 331 326 326 325 330 321 322 331 335 343 3 1 16 46 63 97 110 110 111 98 122 128 125 121 122 123 125 122 124 124 120 119 119 117 113 108 107 104 102 101 102 98 96 95 94 94 95 95 93 91 86 82 80 79 74 73 70 67 62 59 57 47 51 56
164 173 204 148 135 114 129 138 138 137 nan nan 70 324 32 54 83 71 67 72 156 97 7 343 330 330 328 329 333 331 331 330 332 329 326 323 327 328 324 325 325 335 350 360 7 22 64 71 96 108 117 115 121 122 128 128 127 125 126 127 124 127 125 123 123 123 123 116 111 110 108 107 103 99 99 96 93 92 92 94 92 92 91 87 85 81 76 72 72 70 67 66 65 61 57 50 53
176 161 172 169 157 121 128 130 112 nan nan nan 277 20 50 38 69 39 69 70 127 69 354 333 331 337 340 336 335 333 330 331 327 327 314 301 310 314 317 308 331 346 357 358 4 30 66 112 94 106 118 112 126 130 127 128 131 127 129 126 124 130 128 129 129 129 124 120 113 108 107 106 103 102 98 96 96 96 96 96 95 95 95 91 86 78 73 68 65 65 64 63 60 64 63 57 56
187 165 204 188 nan nan nan 137 nan nan nan nan 42 61 56 48 128 63 63 45 86 3 355 345 341 344 351 350 341 338 339 339 333 332 326 299 305 316 324 324 337 360 4 358 2 41 94 117 95 95 107 118 129 127 128 125 127 124 126 128 129 130 128 131 129 128 128 122 111 104 102 104 101 100 99 100 98 96 99 99 100 98 96 90 83 78 68 61 55 57 58 56 57 62 67 66 63
nan nan nan nan nan nan nan nan nan nan nan nan nan 76 65 40 48 87 45 3 350 1 1 359 350 353 356 354 350 344 343 345 346 330 317 307 309 329 335 334 350 4 5 7 8 51 127 113 96 103 111 119 126 121 125 119 121 122 131 135 132 133 131 134 131 129 127 116 111 99 97 96 101 99 101 102 103 105 106 109 106 102 91 82 76 70 61 57 51 49 46 43 44 49 53 58 62
nan nan nan nan nan nan nan nan nan nan nan nan nan nan 77 24 65 74 356 356 0 1 9 7 2 356 358 357 353 349 342 341 335 332 337 334 322 341 353 350 3 8 14 20 26 93 124 86 90 89 99 123 123 115 123 120 120 125 129 138 135 135 135 134 127 127 124 117 107 100 96 96 94 98 99 104 106 109 109 111 108 97 85 71 59 57 54 46 44 32 12 14 23 36 38 41 49
nan nan nan nan nan nan nan nan nan nan nan nan nan nan 85 35 67 58 338 355 11 8 17 15 9 2 1 360 357 351 346 339 336 341 352 344 347 357 6 13 10 9 36 37 46 88 95 91 106 94 99 114 116 112 123 124 128 128 134 136 138 137 133 129 127 125 126 120 111 99 98 93 92 96 99 99 104 105 106 104 97 85 73 60 43 40 44 39 34 22 15 12 10 12 13 17 25
nan nan nan nan nan nan nan nan nan nan nan nan nan nan nan 59 64 6 354 -0 8 14 26 24 18 9 8 6 5 359 348 341 347 353 352 356 6 7 13 14 14 11 28 70 67 93 130 145 142 130 109 103 109 122 131 134 130 135 140 141 140 139 134 130 130 127 122 122 114 103 101 94 95 98 100 99 101 100 98 94 91 78 65 53 28 22 33 34 35 32 26 20 360 359 358 359 1
nan nan nan nan nan nan nan nan nan nan nan nan nan nan nan 82 59 30 14 5 6 18 24 25 21 13 10 10 10 8 359 352 352 352 3 8 4 10 16 12 12 18 34 69 71 87 105 132 147 150 118 97 110 119 127 133 133 138 141 140 137 131 137 134 133 127 121 122 124 120 101 98 96 96 96 100 96 94 90 82 71 66 60 42 30 20 24 54 49 41 33 24 4 359 357 349 348
nan nan nan nan nan nan nan nan nan nan nan nan nan nan nan nan 73 31 33 24 15 16 17 20 21 18 12 11 11 10 6 359 355 354 2 11 8 2 9 9 13 24 35 80 102 111 95 110 116 123 98 85 105 112 125 131 131 138 141 138 137 127 136 134 133 129 131 129 127 121 104 99 98 96 93 89 90 82 76 68 57 48 40 34 22 16 21 31 47 38 29 22 8 4 3 351 347
nan nan nan nan nan nan nan nan nan nan nan nan nan nan nan nan 103 35 39 32 29 20 16 17 19 18 12 11 12 9 4 5 2 5 4 9 23 8 7 15 23 36 57 87 98 102 99 74 94 84 77 75 89 93 105 117 131 131 127 130 128 130 129 134 136 135 137 134 127 122 114 106 101 94 86 77 79 73 61 51 43 33 21 24 16 19 29 28 49 34 23 12 1 359 9 359 351
nan nan nan nan nan nan nan nan nan nan nan nan nan nan nan 175 144 78 55 40 40 37 23 18 18 21 16 9 10 10 7 5 10 10 10 12 39 33 22 22 31 50 87 109 119 103 68 68 86 91 107 85 94 93 98 108 121 123 128 130 128 129 126 137 142 140 138 136 132 125 120 112 104 87 72 64 64 62 53 43 46 32 24 18 17 19 27 26 35 33 15 358 355 358 2 4 358
nan nan nan nan nan nan nan nan nan nan nan nan nan nan nan 179 148 99 65 54 49 50 37 23 19 19 18 14 8 11 12 11 12 9 13 18 28 43 54 31 46 64 115 110 147 103 77 65 84 77 80 72 74 87 91 99 112 120 129 129 130 131 137 137 142 141 138 136 127 123 118 112 100 77 60 49 50 46 42 39 36 31 25 20 19 34 33 27 27 25 17 352 355 1 4 5 357
nan nan nan nan nan nan nan nan nan nan nan nan nan nan nan 160 160 123 107 81 67 67 58 41 27 21 22 18 9 10 18 21 13 10 14 18 23 27 63 70 79 100 125 139 108 78 47 39 62 71 68 66 68 88 102 117 132 135 132 140 135 134 132 134 132 135 134 130 126 119 112 103 90 74 57 44 41 42 42 40 35 27 22 21 31 50 43 25 23 22 10 1 357 0 3 4 4
nan nan nan nan nan nan nan nan nan nan nan nan nan nan nan nan 168 143 134 128 109 93 63 51 34 22 21 19 13 14 21 25 15 15 15 18 19 22 53 77 98 106 118 115 97 54 42 36 38 45 53 52 58 84 110 132 143 143 144 129 122 126 123 124 129 126 124 125 120 111 105 97 86 75 65 49 41 38 41 40 33 27 24 27 40 59 56 40 29 20 7 3 8 9 5 3 359
nan nan nan nan nan nan nan nan nan nan nan nan nan nan nan nan 186 180 176 143 100 89 75 62 44 30 21 18 16 15 19 18 12 22 29 29 28 15 38 100 92 81 112 122 82 56 43 40 44 57 57 47 50 109 173 153 159 144 127 104 113 125 118 118 119 121 118 121 112 102 97 92 83 74 64 50 43 42 42 35 28 25 21 29 45 55 46 30 18 9 2 1 6 15 10 12 358
nan nan nan nan nan nan nan nan nan nan nan nan nan nan nan nan 198 196 179 128 119 104 92 74 57 44 30 24 25 13 4 14 18 25 26 48 44 32 43 84 101 94 96 87 81 63 49 49 56 51 57 34 39 3 225 178 146 127 110 128 121 142 132 129 127 131 129 120 113 96 91 85 74 67 55 46 43 39 39 33 25 21 22 29 40 47 41 30 18 6 359 6 0 5 8 2 3
nan nan nan nan nan nan nan nan nan nan nan nan nan nan nan nan nan 187 178 172 163 140 127 131 113 76 43 28 23 15 7 8 18 22 26 40 51 51 48 84 119 120 122 112 84 49 65 65 61 45 43 27 1 1 330 123 97 105 113 161 153 144 149 146 148 151 143 124 110 98 88 76 62 59 45 36 34 33 32 27 20 16 18 22 37 43 33 30 2 354 356 3 7 12 13 9 7
nan nan nan nan nan nan nan nan nan nan nan nan nan nan nan nan nan 197 192 193 187 170 147 134 126 103 88 70 44 28 16 12 17 24 30 32 40 54 58 109 124 108 101 92 71 77 135 62 65 42 42 33 313 352 4 334 141 93 127 163 155 146 154 159 164 151 134 120 109 95 78 58 51 49 38 25 25 27 25 21 15 13 16 19 29 34 29 17 355 354 352 358 9 22 24 17 9
nan nan nan nan nan nan nan nan nan nan nan nan nan nan nan nan nan nan 212 217 182 168 134 110 110 102 93 73 54 38 28 16 16 23 27 30 31 35 58 51 61 88 92 92 95 95 116 118 93 73 115 91 67 26 14 45 99 158 155 138 137 141 145 151 130 110 102 92 86 85 65 44 36 36 28 19 18 19 16 12 11 11 13 17 21 24 15 357 351 352 354 8 16 24 36 20 10
nan nan nan nan nan nan nan nan nan nan nan nan nan nan nan nan nan 196 210 216 180 177 138 123 115 108 98 85 70 50 31 16 20 35 34 31 34 33 39 50 53 67 96 122 122 110 87 97 70 48 78 111 78 58 15 172 184 155 148 144 145 145 139 121 111 111 112 113 112 85 64 33 29 28 22 13 9 10 7 0 4 9 12 13 3 10 4 5 -0 2 358 12 20 21 22 22 13
nan nan nan nan nan nan nan nan nan nan nan nan nan nan nan nan nan nan 207 206 190 171 150 134 115 102 97 92 79 64 46 27 11 21 30 37 37 40 45 50 61 83 123 128 120 116 61 53 38 37 92 98 80 63 19 167 161 162 159 149 153 140 119 124 125 141 152 162 141 97 77 46 23 21 18 9 5 1 355 352 355 1 4 7 359 0 15 12 2 3 6 11 11 12 14 17 13
nan nan nan nan nan nan nan nan nan nan nan nan nan nan nan nan nan nan 218 206 192 160 143 119 106 97 92 91 86 74 58 38 18 12 26 33 43 48 62 74 85 110 117 106 108 113 107 84 56 43 53 52 84 8 352 22 156 183 174 155 150 140 124 144 174 171 169 170 135 135 76 28 360 1 9 10 2 358 347 345 348 360 7 12 3 8 18 11 8 5 3 4 5 3 4 10 8
nan nan nan nan nan nan nan nan nan nan nan nan nan nan nan nan nan nan 216 195 178 145 132 117 112 108 105 102 93 85 77 64 41 25 20 33 51 64 64 87 118 103 109 138 148 152 131 114 63 30 33 51 122 351 347 5 9 234 208 157 120 155 158 176 196 198 196 213 166 226 296 325 336 340 353 1 357 353 349 346 350 3 20 10 346 10 6 2 3 5 4 4 4 0 354 357 360
nan nan nan nan nan nan nan nan nan nan nan nan nan nan nan nan nan nan nan 185 165 168 169 157 145 136 117 107 95 91 85 71 58 37 25 27 47 72 78 60 56 73 135 147 142 119 109 80 45 23 24 257 312 329 333 351 349 329 257 257 11 92 156 209 226 224 236 250 261 303 314 320 313 326 335 342 351 349 349 350 352 353 10 3 338 345 350 358 358 359 1 3 1 358 349 350 353
nan nan nan nan nan nan nan nan nan nan nan nan nan nan nan nan nan nan nan 195 175 173 158 171 162 134 120 119 103 86 80 80 70 57 36 15 14 53 65 73 42 347 352 354 10 123 129 130 100 16 355 337 298 303 315 328 310 325 281 286 306 262 245 223 257 270 281 298 310 313 306 295 299 307 320 333 340 344 341 349 355 351 347 356 340 329 335 348 350 349 355 358 357 355 350 351 359
nan nan nan nan nan nan nan nan nan nan nan nan nan nan nan nan nan nan nan nan nan 171 163 176 176 149 126 110 90 94 87 79 74 70 62 20 2 8 24 50 246 264 266 309 316 272 235 220 263 306 329 311 281 292 308 317 310 298 278 279 276 247 246 249 260 270 276 281 288 298 295 299 298 307 323 337 341 341 336 345 346 336 333 351 331 319 327 337 339 344 355 358 355 354 355 358 4
nan nan nan nan nan nan nan nan nan nan nan nan nan nan nan nan nan nan nan nan nan 161 159 173 181 168 147 129 114 111 100 77 76 64 61 59 21 356 3 16 301 231 243 239 244 233 233 232 253 266 251 264 260 274 293 301 310 293 278 269 268 262 262 256 253 264 275 274 276 290 297 304 306 321 327 337 335 335 335 335 335 332 326 325 314 317 321 327 335 346 353 356 358 359 357 1 7
nan nan nan nan nan nan nan nan nan nan nan nan nan nan nan nan nan nan nan nan nan nan 159 170 174 171 166 168 190 190 144 92 102 66 51 62 56 355 340 339 301 271 280 261 239 235 237 247 253 274 258 263 275 279 274 298 286 291 277 272 266 260 261 255 258 262 275 288 282 286 286 295 304 309 324 328 326 329 333 331 330 319 313 322 306 310 312 319 333 344 350 357 360 356 360 359 3
nan nan nan nan nan nan nan nan nan nan nan nan nan nan nan nan nan nan nan nan nan nan nan 174 175 170 177 202 213 223 233 39 351 346 23 45 51 320 308 310 320 296 304 288 287 264 263 264 269 281 289 276 283 283 280 289 284 274 285 287 288 281 262 259 256 260 268 281 284 287 285 291 298 305 314 316 319 323 329 331 325 316 305 310 302 311 311 316 330 342 348 355 1 354 358 359 0
nan nan nan nan nan nan nan nan nan nan nan nan nan nan nan nan nan nan nan nan nan nan nan nan nan 169 191 210 215 229 249 300 322 1 1 1 332 288 326 316 307 316 306 318 305 297 308 281 283 290 289 280 291 297 290 279 278 281 292 295 290 291 292 291 282 287 290 281 285 287 283 293 300 299 304 306 311 318 324 329 324 310 309 302 302 307 310 314 326 340 351 355 1 358 357 358 0
nan nan nan nan nan nan nan nan nan nan nan nan nan nan nan nan nan nan nan nan nan nan nan nan nan nan 191 199 211 232 269 322 359 5 343 317 315 323 341 260 307 315 325 323 306 299 287 285 300 299 295 310 304 295 289 276 281 284 283 294 298 301 300 301 288 284 280 277 282 280 282 279 291 298 299 298 306 314 318 323 318 302 291 298 305 305 307 313 324 338 352 356 359 352 353 354 1
nan nan nan nan nan nan nan nan nan nan nan nan nan nan nan nan nan nan nan nan nan nan nan nan nan nan nan nan 204 227 230 212 189 39 311 309 308 318 323 328 330 310 295 288 289 293 288 291 297 305 312 319 308 289 285 272 281 271 274 289 299 295 290 286 283 281 279 282 287 285 288 284 282 287 291 295 299 308 312 316 315 299 287 297 302 303 301 307 322 336 348 355 352 349 350 354 358
nan nan nan nan nan nan nan nan nan nan nan nan nan nan nan nan nan nan nan nan nan nan nan nan nan nan nan nan nan 225 231 207 168 103 324 321 329 336 336 330 324 308 290 282 289 284 308 308 303 303 304 292 291 295 292 292 295 288 284 286 291 292 291 286 282 282 283 288 287 286 289 287 286 286 293 299 298 306 312 316 312 300 291 297 301 301 299 305 315 332 343 351 348 347 350 352 354
nan nan nan nan nan nan nan nan nan nan nan nan nan nan nan nan nan nan nan nan nan nan nan nan nan nan nan nan 200 221 235 213 182 172 277 330 333 335 333 322 309 288 270 272 273 287 292 289 298 307 301 305 310 309 301 295 290 291 292 296 297 296 299 291 290 288 288 287 283 282 282 283 280 287 290 298 301 305 308 312 311 295 291 294 299 297 293 298 310 325 338 345 340 341 345 343 341
nan nan nan nan nan nan nan nan nan nan nan nan nan nan nan nan nan nan nan nan nan nan nan nan nan nan nan nan 180 203 213 202 193 181 211 309 323 322 320 298 270 256 256 271 270 273 281 287 292 299 302 305 316 309 302 298 293 292 304 302 303 296 295 290 294 291 292 287 284 283 282 281 287 289 291 297 300 299 301 306 304 291 284 291 296 295 292 293 306 320 333 334 339 339 342 343 339